Monroe, MI

10:10 AM EDT on April 26, 2017 (GMT -0400)
Custer

Weather History for KTTF - March, 2014

Change the Weather History Date:

Monday, March 10, 2014

  Actual Average Record
Temperature  
Mean Temperature 40 °F -  
Max Temperature 44 °F 44 °F 67 °F (1977)
Min Temperature 35 °F 26 °F 8 °F (1933)
Degree Days  
Heating Degree Days 26    
Moisture  
Dew Point 32 °F    
Average Humidity 72    
Maximum Humidity 81    
Minimum Humidity 61    
Precipitation  
Precipitation 0.00 in - - ()
Sea Level Pressure  
Sea Level Pressure 29.68 in    
Wind  
Wind Speed 15 mph (WSW)    
Max Wind Speed 22 mph    
Max Gust Speed 29 mph    
Visibility 8 miles    
Events      
Averages and records for this station are not official NWS values.
T = Trace of Precipitation, MM = Missing Value Source: NWS Daily Summary

Daily Weather History Graph

Daily Weather History Graph

Search for Another Location

Airport or City:

Trip Planner

Search our weather history database for the weather conditions in past years. The results will help you decide how hot, cold, wet, or windy it might be!

Date:

Astronomy

Mar. 10, 2014 Rise Set
Actual Time 7:53 AM EDT 7:34 PM EDT
Civil Twilight 7:26 AM EDT 8:02 PM EDT
Nautical Twilight 6:53 AM EDT 8:34 PM EDT
Astronomical Twilight 6:21 AM EDT 9:07 PM EDT
Moon 2:13 PM EDT (3/10) 4:08 AM EDT (3/10)
Length of Visible Light 12h 36m
Length of Day
11h 40m
Waxing Gibbous, 70% of the Moon is Illuminated
Mar 10
Waxing Gibbous
Mar 16
Full
Mar 23
Last Quarter
Mar 30
New
Apr 7
First Quarter

Hourly Weather History & Observations

Time (EDT) Temp. Windchill Dew Point Humidity Pressure Visibility Wind Dir Wind Speed Gust Speed Precip Events Conditions
12:15 AM 37.4 °F 27.5 °F 26.6 °F 65% 29.84 in 10.0 mi WSW 18.4 mph - N/A   Clear
12:35 AM 37.4 °F 27.5 °F 26.6 °F 65% 29.84 in 10.0 mi WSW 18.4 mph 23.0 mph N/A   Clear
12:55 AM 37.4 °F 27.5 °F 26.6 °F 65% 29.83 in 10.0 mi WSW 18.4 mph - N/A   Clear
1:16 AM 37.4 °F 27.2 °F 26.6 °F 65% 29.82 in 10.0 mi WSW 19.6 mph 25.3 mph N/A   Clear
1:36 AM 37.4 °F 27.8 °F 28.4 °F 70% 29.82 in 10.0 mi WSW 17.3 mph 25.3 mph N/A   Clear
1:56 AM 37.4 °F 27.5 °F 28.4 °F 70% 29.81 in 10.0 mi WSW 18.4 mph 21.9 mph N/A   Mostly Cloudy
2:16 AM 37.4 °F 28.5 °F 28.4 °F 70% 29.80 in 10.0 mi WSW 15.0 mph 23.0 mph N/A   Overcast
2:36 AM 37.4 °F 27.5 °F 28.4 °F 70% 29.79 in 10.0 mi WSW 18.4 mph - N/A   Mostly Cloudy
2:56 AM 37.4 °F 27.8 °F 28.4 °F 70% 29.79 in 10.0 mi WSW 17.3 mph 23.0 mph N/A   Scattered Clouds
3:16 AM 37.4 °F 28.2 °F 28.4 °F 70% 29.78 in 10.0 mi WSW 16.1 mph - N/A   Overcast
3:36 AM 35.6 °F 26.6 °F 30.2 °F 81% 29.77 in 10.0 mi WSW 13.8 mph - N/A   Overcast
3:56 AM 35.6 °F 27.5 °F 28.4 °F 75% 29.76 in 10.0 mi WSW 11.5 mph - N/A   Overcast
4:17 AM 35.6 °F 27.5 °F 30.2 °F 81% 29.75 in 10.0 mi WSW 11.5 mph - N/A   Overcast
4:32 AM 35.6 °F 27.1 °F 30.2 °F 81% 29.74 in 7.0 mi WSW 12.7 mph - N/A   Overcast
4:52 AM 35.6 °F 27.1 °F 30.2 °F 81% 29.73 in 7.0 mi WSW 12.7 mph - N/A   Mostly Cloudy
5:12 AM 35.6 °F 28.0 °F 30.2 °F 81% 29.73 in 7.0 mi WSW 10.4 mph 16.1 mph N/A   Mostly Cloudy
5:32 AM 35.6 °F 27.1 °F 30.2 °F 81% 29.72 in 7.0 mi WSW 12.7 mph - N/A   Overcast
5:52 AM 35.6 °F 27.1 °F 30.2 °F 81% 29.72 in 7.0 mi SW 12.7 mph 17.3 mph N/A   Overcast
6:12 AM 35.6 °F 26.6 °F 30.2 °F 81% 29.72 in 7.0 mi WSW 13.8 mph - N/A   Overcast
6:32 AM 35.6 °F 28.6 °F 30.2 °F 81% 29.72 in 7.0 mi WSW 9.2 mph - N/A   Overcast
6:52 AM 35.6 °F 28.0 °F 30.2 °F 81% 29.72 in 7.0 mi WSW 10.4 mph - N/A   Overcast
7:12 AM 35.6 °F 28.6 °F 30.2 °F 81% 29.72 in 7.0 mi WSW 9.2 mph - N/A   Overcast
7:32 AM 37.4 °F 30.3 °F 30.2 °F 75% 29.72 in 7.0 mi SW 10.4 mph - N/A   Overcast
7:53 AM 37.4 °F 32.1 °F 30.2 °F 75% 29.71 in 7.0 mi SW 6.9 mph - N/A   Mostly Cloudy
8:13 AM 37.4 °F 30.8 °F 30.2 °F 75% 29.71 in 7.0 mi SW 9.2 mph - N/A   Scattered Clouds
8:33 AM 37.4 °F 31.4 °F 30.2 °F 75% 29.72 in 7.0 mi SW 8.1 mph - N/A   Mostly Cloudy
8:53 AM 37.4 °F 31.4 °F 30.2 °F 75% 29.72 in 7.0 mi SW 8.1 mph - N/A   Scattered Clouds
9:13 AM 37.4 °F 30.8 °F 30.2 °F 75% 29.71 in 7.0 mi SW 9.2 mph - N/A   Scattered Clouds
9:33 AM 37.4 °F 29.8 °F 30.2 °F 75% 29.71 in 7.0 mi SW 11.5 mph - N/A   Overcast
9:53 AM 39.2 °F 32.5 °F 30.2 °F 70% 29.70 in 7.0 mi SW 10.4 mph - N/A   Overcast
10:13 AM 39.2 °F 32.0 °F 30.2 °F 70% 29.71 in 7.0 mi WSW 11.5 mph - N/A   Overcast
10:33 AM 39.2 °F 32.0 °F 30.2 °F 70% 29.70 in 7.0 mi SW 11.5 mph 16.1 mph N/A   Mostly Cloudy
10:53 AM 39.2 °F 31.6 °F 30.2 °F 70% 29.70 in 7.0 mi SW 12.7 mph - N/A   Mostly Cloudy
11:14 AM 41.0 °F 33.5 °F 30.2 °F 65% 29.70 in 7.0 mi WSW 13.8 mph 17.3 mph N/A   Mostly Cloudy
11:34 AM 41.0 °F 34.7 °F 30.2 °F 65% 29.69 in 7.0 mi SW 10.4 mph 18.4 mph N/A   Mostly Cloudy
11:54 AM 41.0 °F 33.1 °F 32.0 °F 70% 29.68 in 7.0 mi WSW 15.0 mph 19.6 mph N/A   Mostly Cloudy
12:14 PM 41.0 °F 33.1 °F 30.2 °F 65% 29.68 in 7.0 mi WSW 15.0 mph 19.6 mph N/A   Mostly Cloudy
12:34 PM 42.8 °F 35.4 °F 32.0 °F 66% 29.67 in 7.0 mi WSW 15.0 mph 20.7 mph N/A   Mostly Cloudy
12:54 PM 42.8 °F 35.4 °F 32.0 °F 66% 29.68 in 7.0 mi WSW 15.0 mph - N/A   Scattered Clouds
1:14 PM 42.8 °F 35.8 °F 32.0 °F 66% 29.67 in 7.0 mi WSW 13.8 mph - N/A   Clear
1:34 PM 42.8 °F 34.8 °F 32.0 °F 66% 29.66 in 7.0 mi WSW 17.3 mph 21.9 mph N/A   Clear
1:55 PM 44.6 °F 37.8 °F 32.0 °F 61% 29.65 in 10.0 mi SW 15.0 mph 20.7 mph N/A   Clear
2:15 PM 42.8 °F 35.8 °F 32.0 °F 66% 29.64 in 7.0 mi SW 13.8 mph 23.0 mph N/A   Clear
2:35 PM 44.6 °F 36.4 °F 32.0 °F 61% 29.62 in 7.0 mi SW 20.7 mph 27.6 mph N/A   Clear
2:55 PM 44.6 °F 36.4 °F 32.0 °F 61% 29.60 in 7.0 mi SW 20.7 mph 28.8 mph N/A   Clear
3:15 PM 44.6 °F 37.2 °F 32.0 °F 61% 29.60 in 7.0 mi SW 17.3 mph 25.3 mph N/A   Clear
3:35 PM 44.6 °F 36.4 °F 33.8 °F 66% 29.60 in 7.0 mi WSW 20.7 mph 26.5 mph N/A   Clear
3:55 PM 44.6 °F 36.4 °F 33.8 °F 66% 29.59 in 10.0 mi WSW 20.7 mph 27.6 mph N/A   Clear
4:15 PM 44.6 °F 36.1 °F 33.8 °F 66% 29.60 in 7.0 mi WSW 21.9 mph 26.5 mph N/A   Clear
4:36 PM 44.6 °F 36.9 °F 33.8 °F 66% 29.60 in 7.0 mi WSW 18.4 mph 24.2 mph N/A   Clear
4:56 PM 44.6 °F 36.1 °F 33.8 °F 66% 29.60 in 7.0 mi WSW 21.9 mph 28.8 mph N/A   Clear
5:16 PM 44.6 °F 36.9 °F 33.8 °F 66% 29.59 in 7.0 mi WSW 18.4 mph - N/A   Clear
5:36 PM 44.6 °F 37.4 °F 33.8 °F 66% 29.59 in 7.0 mi WSW 16.1 mph 23.0 mph N/A   Clear
5:56 PM 44.6 °F 38.1 °F 33.8 °F 66% 29.59 in 7.0 mi WSW 13.8 mph 23.0 mph N/A   Clear
6:16 PM 44.6 °F 37.8 °F 33.8 °F 66% 29.59 in 7.0 mi WSW 15.0 mph 20.7 mph N/A   Clear
6:36 PM 44.6 °F 37.8 °F 33.8 °F 66% 29.58 in 7.0 mi WSW 15.0 mph - N/A   Clear
6:56 PM 44.6 °F 37.8 °F 35.6 °F 71% 29.59 in 7.0 mi WSW 15.0 mph - N/A   Clear
7:16 PM 44.6 °F 38.4 °F 35.6 °F 71% 29.59 in 7.0 mi WSW 12.7 mph - N/A   Clear
7:37 PM 44.6 °F 38.8 °F 35.6 °F 71% 29.60 in 7.0 mi WSW 11.5 mph 15.0 mph N/A   Clear
7:52 PM 44.6 °F 38.4 °F 35.6 °F 71% 29.61 in 10.0 mi WSW 12.7 mph - N/A   Clear
8:12 PM 42.8 °F 36.6 °F 35.6 °F 76% 29.62 in 10.0 mi WSW 11.5 mph - N/A   Clear
8:32 PM 42.8 °F 35.8 °F 35.6 °F 76% 29.62 in 10.0 mi WSW 13.8 mph - N/A   Clear
8:52 PM 42.8 °F 36.2 °F 35.6 °F 76% 29.62 in 10.0 mi WSW 12.7 mph - N/A   Clear
9:12 PM 42.8 °F 36.2 °F 35.6 °F 76% 29.63 in 7.0 mi WSW 12.7 mph - N/A   Clear
9:32 PM 42.8 °F 36.2 °F 35.6 °F 76% 29.63 in 7.0 mi WSW 12.7 mph - N/A   Clear
9:52 PM 42.8 °F 35.8 °F 35.6 °F 76% 29.63 in 7.0 mi WSW 13.8 mph - N/A   Clear
10:12 PM 42.8 °F 36.6 °F 35.6 °F 76% 29.64 in 7.0 mi WSW 11.5 mph - N/A   Clear
10:32 PM 42.8 °F 37.5 °F 35.6 °F 76% 29.64 in 7.0 mi WSW 9.2 mph - N/A   Clear
10:53 PM 42.8 °F 37.5 °F 35.6 °F 76% 29.64 in 7.0 mi WSW 9.2 mph - N/A   Clear
11:13 PM 42.8 °F 38.0 °F 35.6 °F 76% 29.64 in 7.0 mi West 8.1 mph - N/A   Clear
11:33 PM 41.0 °F 35.8 °F 35.6 °F 81% 29.64 in 7.0 mi West 8.1 mph - N/A   Clear
11:53 PM 41.0 °F - 35.6 °F 81% 29.64 in 7.0 mi Calm Calm - N/A   Clear